ASTRO H

Satellite information

Favourite Embed

Satellite Type and Status

PAYLOADIN ORBIT

Key statistics

Satellite ASTRO H at a glance.

Uptime

3492

Days in orbit

Revolutions

≈ 15.1

Per day

Orbit

LEO

Low Earth Orbit

Inclination

31.0

Latest

Satellite identification and parameters

Extended collection of information and parameters for ASTRO H.

Object identification

Identified? True

Debris? False

Object name: ASTRO H

International designator: 2016-012A

Object number (NORAD): 41337

Object ID (CCSDS): 41337

Country: JAPAN (JPN)

Current information (Y/N): Y

RCS size: LARGE

Orbital parameters

Period: 95.46 minutes

Inclination: 30.9992 deg

SMA: 6918.954 km

Apoapsis: 547.884 km

Periapsis: 533.754 km

RAAN: 92.6446 deg

Eccentricy: 0.00102111

Argument of periapsis: 300.5354 deg

Mean anomaly: 59.4275 deg

Mean motion: 15.08488811 rev/day

Mean motion (dot): 0.00003151 rev/day2

B* drag term: 0.00019122728 1/REarth

Two-line elements (TLE)

Creation date: Sept. 8, 2025, 9:49 a.m.

Reference frame: TEME

Reference center: EARTH

Epoch: Sept. 8, 2025, 5:37 a.m. UTC

TLE line 0: 0 ASTRO H

TLE line 1: 1 41337U 16012A 25251.23466969 .00003151 00000-0 19123-3 0 9997

TLE line 2: 2 41337 30.9992 92.6446 0010211 300.5354 59.4275 15.08488811524645

Live tracking on map

Real-time ground track for satellite ASTRO H.

In-orbit conjunctions

There are no conjunctions computed for ASTRO H, at the moment. Check back to stay up to date, as we update our databases every day.

Go to all conjunctions

Associated space launch

Astro-H is the 6th satellite in a series of X-ray telescopes by JAXA and ISAS. Its 4 instruments on board will cover the X-ray and Gamma ray regions. This region consists of photons with energy ranging from 0.3-600keV, and the telescope will provide the highest resolution ever achieved of 3-10 keV bands. The craft weighs 2.7 tonnes and will be placed into a circular orbit 575km above the ground, with an inclination of 31 degrees.

ASTRO H was lifted into orbit during the mission ‘H-IIA 202 | Astro-H (Hitomi)’, on board a H-IIA space rocket.

The launch took place on Feb. 17, 2016, 8:45 a.m. from Yoshinobu Launch Complex LP-1.

For more information about the launch, click the button.

Launch to space H-IIA 202 | Astro-H (Hitomi)
H-IIA 202 | Astro-H (Hitomi)

Agency: N/A

Status: Launch Successful

Launch date: Feb. 17, 2016, 8:45 a.m. UTC

Rocket: H-IIA

Launch pad: Yoshinobu Launch Complex LP-1

Location: Tanegashima Space Center, Japan

...

Latest news about this satellite

There are no fresh news available about this satellite. Check back as we update our databases every day.


Newsletter sign-up

Weekly statistics, charts and insights to help you stay on top of the space industry.